Content
SEND FEEDBACK

Daily
Averages
Monthly
Summary
Canada

IMPERIAL, SASKATCHEWAN


Home > North America > Canada > Saskatchewan
Elevation: 1824 feet     Latitude: 51 22N     Longitude: 105 31W

WEATHER
 
SELECT A DAY
Number of Records: 258,202;   Date Range: 1/1/95 - 9/17/14
 
SHARE

PRINT THIS DATA

[ ← Previous Day ]
WEATHER ALMANAC - JANUARY 3, 2013
[ Next Day → ]
[ °C ]   °F
Weather ElementAverageHighLow
Temperature18 °F32 °F (4:00 pm)-0.9 °F (12:00 am)
Dewpoint11.2 °F18.7 °F (3:00 pm)-3.6 °F (12:00 am)
Humidity74.2 %91 % (1:00 am)58 % (4:00 pm)
Barometer30.04 in30.25 in (12:00 am)29.95 in (2:00 pm)
Wind Speed12.5 mph18.4 mph (11:00 am)
Weather ElementAverage
Wind DirectionWSW (238.9 °)

Weather ElementTotal
Precipitation---
Heating Degree Days49.5 (Base 65)
Averaged from 27 records on January 3, 2013
WEATHER CONDITIONS BREAKOUT
WIND DIRECTION BREAKOUT
WEATHER BY HOUR - JANUARY 3, 2013
[ °C ]   °F
Local TimeTemperatureDewpointHumidityBarometerVisibilityWind DirectionWind SpeedGust SpeedPrecipitationEventsConditions
12:00 AM-0.9 °F-3.6 °F88 %30.25 inSouth (170°)9.2 mph
1:00 AM3.7 °F1.8 °F91 %30.21 inSouth (180°)11.5 mph
2:00 AM3.6 °F1.2 °F90 %30.19 inSSW (200°)10.4 mph
3:00 AM3.6 °F1.2 °F90 %30.15 inSouth (180°)11.5 mph
4:00 AM4.6 °F2.3 °F90 %30.11 inSouth (180°)9.2 mph
5:00 AM7.7 °F3.6 °F83 %30.06 inSouth (180°)13.8 mph
6:00 AM5.5 °F1.6 °F84 %30.03 inSouth (190°)11.5 mph
6:00 AM6.0 °F2.0 °F73 %30.03 inSouth (190°)11.5 mph
7:00 AM10.2 °F3.6 °F74 %30.01 inENE (70°)4.6 mph
8:00 AM17.1 °F8.8 °F70 %29.99 inWSW (240°)3.5 mph
9:00 AM21.4 °F12.0 °F67 %29.97 inWest (260°)10.4 mph
10:00 AM23.7 °F15.1 °F70 %29.96 inWest (280°)16.1 mph
11:00 AM24.1 °F16.2 °F72 %29.96 inWest (270°)18.4 mph
12:00 PM24.3 °F16.7 °F73 %29.97 inWest (270°)17.3 mph
12:00 PM24.0 °F17.0 °F64 %29.97 inWest (270°)17.3 mph
1:00 PM25.5 °F17.1 °F70 %29.97 inWest (280°)16.1 mph
2:00 PM27.0 °F17.4 °F67 %29.95 inWest (260°)12.7 mph
3:00 PM28.4 °F18.7 °F67 %29.96 inWest (270°)11.5 mph
4:00 PM32.0 °F18.7 °F58 %29.97 inWest (280°)13.8 mph
5:00 PM26.8 °F17.4 °F68 %30.01 inWest (280°)15.0 mph
6:00 PM26.2 °F17.1 °F68 %30.01 inWest (280°)17.3 mph
6:00 PM26.0 °F17.0 °F58 %30.01 inWest (280°)17.3 mph
7:00 PM25.7 °F17.1 °F70 %30.02 inWest (280°)15.0 mph
8:00 PM25.7 °F17.2 °F70 %30.04 inWNW (290°)10.4 mph
9:00 PM24.8 °F16.7 °F71 %30.04 inWest (280°)12.7 mph
10:00 PM20.7 °F14.9 °F78 %30.05 inWest (270°)11.5 mph
11:00 PM19.0 °F13.8 °F80 %30.06 inWest (270°)9.2 mph
Hourly data recorded from CWIW, located miles away from Imperial, Saskatchewan







STORIES FROM OUR PARTNERS